Cherry Point, NC

5:24 AM EST on December 09, 2016 (GMT -0500)
Cherry Point Marine Corps Air Station

Weather History for KNKT - July, 2013

Change the Weather History Date:

Saturday, July 27, 2013

  Actual Average Record
Temperature  
Mean Temperature 78 °F -  
Max Temperature 89 °F 84 °F 97 °F (2016)
Min Temperature 66 °F 70 °F 66 °F (2013)
Cooling Degree Days 12    
Growing Degree Days 28 (Base 50)    
Moisture  
Dew Point 67 °F    
Average Humidity 72    
Maximum Humidity 93    
Minimum Humidity 42    
Precipitation  
Precipitation 0.00 in - - ()
Sea Level Pressure  
Sea Level Pressure 30.01 in    
Wind  
Wind Speed 3 mph ()    
Max Wind Speed 9 mph    
Max Gust Speed -    
Visibility 9.4 miles    
Events Fog    
Averages and records for this station are not official NWS values.
T = Trace of Precipitation, MM = Missing Value Source: Averaged Metar Reports

Daily Weather History Graph

Daily Weather History Graph

Search for Another Location

Airport or City:

Trip Planner

Search our weather history database for the weather conditions in past years. The results will help you decide how hot, cold, wet, or windy it might be!

Date:

Astronomy

Jul. 27, 2013 Rise Set
Actual Time 6:13 AM EDT 8:14 PM EDT
Civil Twilight 5:45 AM EDT 8:42 PM EDT
Nautical Twilight 5:11 AM EDT 9:16 PM EDT
Astronomical Twilight 4:34 AM EDT 9:52 PM EDT
Moon 11:17 PM EDT (7/27) 11:35 AM EDT (7/27)
Length of Visible Light 14h 56m
Length of Day
14h 00m
Waning Gibbous, 71% of the Moon is Illuminated
Jul 27
Waning Gibbous
Jul 29
Last Quarter
Aug 6
New
Aug 14
First Quarter
Aug 20
Full

Hourly Weather History & Observations

Time (EDT) Temp. Heat Index Dew Point Humidity Pressure Visibility Wind Dir Wind Speed Gust Speed Precip Events Conditions
12:54 AM 70.0 °F - 66.0 °F 87% 30.06 in 10.0 mi ESE 4.6 mph - N/A   Clear
1:54 AM 69.1 °F - 66.0 °F 90% 30.06 in 8.0 mi Calm Calm - N/A   Clear
2:54 AM 68.0 °F - 64.9 °F 90% 30.04 in 10.0 mi East 3.5 mph - N/A   Clear
3:54 AM 68.0 °F - 64.9 °F 90% 30.04 in 9.0 mi Calm Calm - N/A   Clear
4:54 AM 66.9 °F - 64.0 °F 90% 30.03 in 10.0 mi Calm Calm - N/A   Clear
5:54 AM 66.9 °F - 64.0 °F 90% 30.03 in 3.0 mi Calm Calm - N/A Fog Shallow Fog
6:54 AM 66.0 °F - 64.0 °F 93% 30.04 in 8.0 mi Calm Calm - N/A   Partly Cloudy
7:54 AM 73.9 °F - 70.0 °F 87% 30.04 in 6.0 mi Calm Calm - N/A   Clear
8:54 AM 79.0 °F - 69.1 °F 72% 30.05 in 10.0 mi East 3.5 mph - N/A   Mostly Cloudy
9:54 AM 82.9 °F 84.6 °F 64.9 °F 54% 30.05 in 10.0 mi Variable 3.5 mph - N/A   Mostly Cloudy
10:54 AM 84.0 °F 85.4 °F 64.0 °F 51% 30.04 in 10.0 mi NE 4.6 mph - N/A   Mostly Cloudy
11:54 AM 87.1 °F 87.5 °F 62.1 °F 43% 30.03 in 10.0 mi North 5.8 mph - N/A   Mostly Cloudy
12:54 PM 86.0 °F 86.3 °F 62.1 °F 44% 30.01 in 10.0 mi Calm Calm - N/A   Mostly Cloudy
1:54 PM 88.0 °F 89.3 °F 64.0 °F 45% 30.00 in 10.0 mi SE 8.1 mph - N/A   Mostly Cloudy
2:54 PM 89.1 °F 90.0 °F 63.0 °F 42% 29.98 in 10.0 mi ENE 8.1 mph - N/A   Mostly Cloudy
3:54 PM 84.0 °F 87.0 °F 68.0 °F 58% 29.98 in 10.0 mi South 8.1 mph - N/A   Mostly Cloudy
4:54 PM 82.9 °F 85.8 °F 68.0 °F 60% 29.99 in 10.0 mi South 9.2 mph - N/A   Mostly Cloudy
5:54 PM 82.0 °F 85.5 °F 69.1 °F 65% 29.99 in 10.0 mi SSE 9.2 mph - N/A   Partly Cloudy
6:54 PM 82.0 °F 85.9 °F 70.0 °F 67% 29.99 in 10.0 mi SE 9.2 mph - N/A   Clear
7:54 PM 79.0 °F - 69.1 °F 72% 29.99 in 10.0 mi SE 8.1 mph - N/A   Clear
8:38 PM 77.0 °F - 69.1 °F 76% 29.99 in 10.0 mi SE 5.8 mph - N/A   Partly Cloudy
8:54 PM 75.9 °F - 69.1 °F 79% 29.98 in 10.0 mi SE 4.6 mph - N/A   Partly Cloudy
9:54 PM 73.9 °F - 70.0 °F 87% 29.99 in 10.0 mi SE 4.6 mph - N/A   Clear
10:54 PM 73.9 °F - 70.0 °F 87% 29.99 in 10.0 mi Calm Calm - N/A   Mostly Cloudy
11:54 PM 73.0 °F - 69.1 °F 87% 29.98 in 10.0 mi SE 5.8 mph - N/A   Mostly Cloudy